This is the latest recevied weather packets stored in our database for station/object CE7LGA-10. If no packets are shown the sender has not sent any weather packets the latest 1 day(s).
| Time | Temp. | Humidity | Pressure | Rain* | Wind** | Luminosity | Snow |
|---|---|---|---|---|---|---|---|
| 1778044031 | 14.44° C | 74% | 997 hPa | - | - | - | - |
| 1778043131 | 14.44° C | 73% | 997.1 hPa | - | - | - | - |
| 1778042231 | 14.44° C | 73% | 997.1 hPa | - | - | - | - |
| 1778041331 | 14.44° C | 73% | 997.4 hPa | - | - | - | - |
| 1778040431 | 15° C | 73% | 997.3 hPa | - | - | - | - |
| 1778039531 | 15° C | 73% | 997.2 hPa | - | - | - | - |
| 1778038631 | 15° C | 73% | 997.4 hPa | - | - | - | - |
| 1778037731 | 15.56° C | 73% | 997 hPa | - | - | - | - |
| 1778035030 | 16.11° C | 72% | 996.9 hPa | - | - | - | - |
| 1778034130 | 16.67° C | 71% | 997 hPa | - | - | - | - |
| 1778033230 | 17.22° C | 71% | 997.1 hPa | - | - | - | - |
| 1778032330 | 17.22° C | 72% | 997 hPa | - | - | - | - |
| 1778031430 | 17.22° C | 72% | 996.9 hPa | - | - | - | - |
| 1778030530 | 17.78° C | 72% | 997 hPa | - | - | - | - |
| 1778029630 | 17.78° C | 72% | 997.1 hPa | - | - | - | - |
| 1778028729 | 17.78° C | 73% | 996.8 hPa | - | - | - | - |
| 1778027832 | 17.78° C | 74% | 997.1 hPa | - | - | - | - |
| 1778026932 | 17.78° C | 75% | 997.2 hPa | - | - | - | - |
| 1778026032 | 17.22° C | 75% | 997.1 hPa | - | - | - | - |
| 1778019731 | 17.22° C | 75% | 996.6 hPa | - | - | - | - |
| 1778017931 | 16.67° C | 77% | 996.5 hPa | - | - | - | - |
| 1778017031 | 15.56° C | 74% | 996.5 hPa | - | - | - | - |
* Rain since midnight (hover to see other rain measurements)
** Current wind speed in m/s (hover to see current wind gust speed)